Weather History for Carrollton, GA

Change the Weather History Date:

Sunday, March 30, 2014

  Actual Average Record
Temperature  
Mean Temperature 52 °F -  
Max Temperature 64 °F 70 °F 82 °F (1963)
Min Temperature 41 °F 43 °F 23 °F (1964)
Degree Days  
Heating Degree Days 12    
Growing Degree Days 2 (Base 50)    
Moisture  
Dew Point 34 °F    
Average Humidity 57    
Maximum Humidity 81    
Minimum Humidity 32    
Precipitation  
Precipitation 0.00 in - - ()
Sea Level Pressure  
Sea Level Pressure 30.11 in    
Wind  
Wind Speed 11 mph (NW)    
Max Wind Speed 17 mph    
Max Gust Speed 26 mph    
Visibility 10 miles    
Events      
Averages and records for this station are not official NWS values.
T = Trace of Precipitation, MM = Missing Value Source: NWS Daily Summary

Daily Weather History Graph

Daily Weather History Graph

Search for Another Location

Airport:

Trip Planner

Search our weather history database for the weather conditions in past years. The results will help you decide how hot, cold, wet, or windy it might be!

Date:

Astronomy

Mar. 30, 2014 Rise Set
Actual Time 7:30 AM EDT 7:59 PM EDT
Civil Twilight 7:05 AM EDT 8:24 PM EDT
Nautical Twilight 6:36 AM EDT 8:54 PM EDT
Astronomical Twilight 6:06 AM EDT 9:24 PM EDT
Moon 7:16 AM EDT (3/30) 8:09 PM EDT (3/30)
Length of Visible Light 13h 18m
Length of Day
12h 28m
Waning Crescent, 0% of the Moon is Illuminated
Mar 30
Waning Crescent
Mar 30
New
Apr 7
First Quarter
Apr 15
Full
Apr 22
Last Quarter

Hourly Weather History & Observations

Time (EDT) Temp. Windchill Dew Point Humidity Pressure Visibility Wind Dir Wind Speed Gust Speed Precip Events Conditions
12:13 AM 46.4 °F 39.5 °F 37.4 °F 71% 30.07 in 10.0 mi NNW 17.3 mph 24.2 mph N/A   Overcast
12:33 AM 44.6 °F 38.1 °F 37.4 °F 76% 30.07 in 10.0 mi NW 13.8 mph 21.9 mph N/A   Mostly Cloudy
12:53 AM 44.6 °F 38.1 °F 37.4 °F 76% 30.08 in 10.0 mi NW 13.8 mph 20.7 mph N/A   Mostly Cloudy
1:13 AM 44.6 °F 38.4 °F 37.4 °F 76% 30.08 in 10.0 mi NNW 12.7 mph 24.2 mph N/A   Overcast
1:33 AM 44.6 °F 38.8 °F 37.4 °F 76% 30.08 in 10.0 mi NNW 11.5 mph 20.7 mph N/A   Overcast
1:53 AM 44.6 °F 38.1 °F 37.4 °F 76% 30.08 in 10.0 mi NNW 13.8 mph 26.5 mph N/A   Overcast
2:13 AM 44.6 °F 38.8 °F 37.4 °F 76% 30.07 in 10.0 mi NNW 11.5 mph 17.3 mph N/A   Overcast
2:33 AM 44.6 °F 38.1 °F 35.6 °F 71% 30.07 in 10.0 mi NW 13.8 mph 20.7 mph N/A   Overcast
2:53 AM 44.6 °F 38.1 °F 35.6 °F 71% 30.07 in 10.0 mi NW 13.8 mph 21.9 mph N/A   Overcast
3:13 AM 44.6 °F 38.4 °F 35.6 °F 71% 30.07 in 10.0 mi NNW 12.7 mph 26.5 mph N/A   Overcast
3:33 AM 42.8 °F 36.2 °F 35.6 °F 76% 30.06 in 10.0 mi NW 12.7 mph 24.2 mph N/A   Mostly Cloudy
3:53 AM 42.8 °F 36.2 °F 33.8 °F 70% 30.06 in 10.0 mi NW 12.7 mph 18.4 mph N/A   Scattered Clouds
4:13 AM 42.8 °F 38.0 °F 33.8 °F 70% 30.06 in 10.0 mi NNW 8.1 mph - N/A   Scattered Clouds
4:33 AM 42.8 °F 39.3 °F 35.6 °F 76% 30.05 in 10.0 mi NNW 5.8 mph - N/A   Scattered Clouds
4:53 AM 42.8 °F 38.6 °F 35.6 °F 76% 30.05 in 10.0 mi NNW 6.9 mph - N/A   Mostly Cloudy
5:13 AM 41.0 °F 36.4 °F 35.6 °F 81% 30.06 in 10.0 mi NW 6.9 mph - N/A   Overcast
5:33 AM 41.0 °F 34.7 °F 35.6 °F 81% 30.06 in 10.0 mi NNW 10.4 mph - N/A   Overcast
5:53 AM 42.8 °F 37.5 °F 35.6 °F 76% 30.07 in 10.0 mi NW 9.2 mph - N/A   Overcast
6:13 AM 42.8 °F 36.6 °F 35.6 °F 76% 30.08 in 10.0 mi NNW 11.5 mph - N/A   Overcast
6:33 AM 42.8 °F 36.2 °F 33.8 °F 70% 30.10 in 10.0 mi NNW 12.7 mph 17.3 mph N/A   Overcast
6:53 AM 42.8 °F 36.6 °F 35.6 °F 76% 30.10 in 10.0 mi NNW 11.5 mph 21.9 mph N/A   Overcast
7:13 AM 42.8 °F 36.6 °F 33.8 °F 70% 30.11 in 10.0 mi NNW 11.5 mph 18.4 mph N/A   Overcast
7:33 AM 41.0 °F 33.9 °F 33.8 °F 76% 30.13 in 10.0 mi NNW 12.7 mph 21.9 mph N/A   Overcast
7:53 AM 41.0 °F 35.2 °F 33.8 °F 76% 30.13 in 10.0 mi NNW 9.2 mph 18.4 mph N/A   Mostly Cloudy
8:13 AM 41.0 °F 34.3 °F 33.8 °F 76% 30.13 in 10.0 mi NNW 11.5 mph 18.4 mph N/A   Scattered Clouds
8:33 AM 41.0 °F 35.2 °F 33.8 °F 76% 30.12 in 10.0 mi NNW 9.2 mph 17.3 mph N/A   Scattered Clouds
8:53 AM 42.8 °F 36.2 °F 33.8 °F 70% 30.14 in 10.0 mi NNW 12.7 mph 21.9 mph N/A   Scattered Clouds
9:13 AM 42.8 °F 36.2 °F 33.8 °F 70% 30.15 in 10.0 mi NNW 12.7 mph 21.9 mph N/A   Scattered Clouds
9:33 AM 44.6 °F 37.2 °F 33.8 °F 66% 30.15 in 10.0 mi NNW 17.3 mph 24.2 mph N/A   Scattered Clouds
9:53 AM 44.6 °F 38.1 °F 33.8 °F 66% 30.16 in 10.0 mi NNW 13.8 mph 18.4 mph N/A   Clear
10:13 AM 44.6 °F 38.1 °F 32.0 °F 61% 30.16 in 10.0 mi NNW 13.8 mph 21.9 mph N/A   Clear
10:33 AM 46.4 °F 40.4 °F 33.8 °F 62% 30.16 in 10.0 mi North 13.8 mph 20.7 mph N/A   Clear
10:53 AM 48.2 °F - 33.8 °F 58% 30.17 in 10.0 mi NNW 15.0 mph 23.0 mph N/A   Clear
11:13 AM 50.0 °F - 33.8 °F 54% 30.16 in 10.0 mi North 13.8 mph 17.3 mph N/A   Clear
11:33 AM 50.0 °F - 32.0 °F 50% 30.17 in 10.0 mi NW 11.5 mph 23.0 mph N/A   Clear
11:53 AM 51.8 °F - 33.8 °F 50% 30.17 in 10.0 mi North 13.8 mph 19.6 mph N/A   Clear
12:13 PM 53.6 °F - 32.0 °F 44% 30.16 in 10.0 mi NNW 11.5 mph 16.1 mph N/A   Clear
12:33 PM 53.6 °F - 33.8 °F 47% 30.15 in 10.0 mi NNW 11.5 mph 19.6 mph N/A   Clear
12:53 PM 55.4 °F - 33.8 °F 44% 30.15 in 10.0 mi NNW 15.0 mph - N/A   Clear
1:13 PM 55.4 °F - 32.0 °F 41% 30.14 in 10.0 mi NW 13.8 mph 19.6 mph N/A   Clear
1:33 PM 55.4 °F - 32.0 °F 41% 30.14 in 10.0 mi NNW 13.8 mph 18.4 mph N/A   Clear
1:53 PM 59.0 °F - 32.0 °F 36% 30.14 in 10.0 mi North 10.4 mph 21.9 mph N/A   Clear
2:13 PM 59.0 °F - 32.0 °F 36% 30.14 in 10.0 mi NNW 10.4 mph 18.4 mph N/A   Clear
2:33 PM 60.8 °F - 33.8 °F 36% 30.13 in 10.0 mi NW 6.9 mph 18.4 mph N/A   Clear
2:53 PM 60.8 °F - 33.8 °F 36% 30.13 in 10.0 mi NNW 11.5 mph 18.4 mph N/A   Clear
3:13 PM 60.8 °F - 32.0 °F 34% 30.12 in 10.0 mi NNW 10.4 mph 16.1 mph N/A   Clear
3:33 PM 62.6 °F - 32.0 °F 32% 30.11 in 10.0 mi North 15.0 mph 21.9 mph N/A   Clear
3:53 PM 62.6 °F - 33.8 °F 34% 30.10 in 10.0 mi WNW 8.1 mph 11.5 mph N/A   Clear
4:13 PM 62.6 °F - 32.0 °F 32% 30.10 in 10.0 mi NW 12.7 mph - N/A   Clear
4:33 PM 62.6 °F - 32.0 °F 32% 30.10 in 10.0 mi North 10.4 mph 19.6 mph N/A   Clear
4:53 PM 62.6 °F - 32.0 °F 32% 30.10 in 10.0 mi NNW 10.4 mph - N/A   Clear
5:13 PM 64.4 °F - 33.8 °F 32% 30.11 in 10.0 mi NW 9.2 mph - N/A   Clear
5:33 PM 62.6 °F - 32.0 °F 32% 30.11 in 10.0 mi WNW 11.5 mph 19.6 mph N/A   Clear
5:53 PM 62.6 °F - 32.0 °F 32% 30.10 in 10.0 mi NNW 11.5 mph - N/A   Clear
6:13 PM 62.6 °F - 32.0 °F 32% 30.10 in 10.0 mi NW 10.4 mph - N/A   Clear
6:33 PM 62.6 °F - 32.0 °F 32% 30.10 in 10.0 mi NW 6.9 mph - N/A   Clear
6:53 PM 62.6 °F - 32.0 °F 32% 30.10 in 10.0 mi WNW 6.9 mph - N/A   Clear
7:13 PM 62.6 °F - 32.0 °F 32% 30.10 in 10.0 mi NW 5.8 mph - N/A   Clear
7:33 PM 60.8 °F - 32.0 °F 34% 30.11 in 10.0 mi WNW 4.6 mph - N/A   Clear
7:53 PM 59.0 °F - 32.0 °F 36% 30.12 in 10.0 mi West 3.5 mph - N/A   Clear
8:13 PM 57.2 °F - 33.8 °F 41% 30.12 in 10.0 mi WNW 4.6 mph - N/A   Clear
8:33 PM 55.4 °F - 33.8 °F 44% 30.12 in 10.0 mi NW 5.8 mph - N/A   Clear
8:53 PM 55.4 °F - 33.8 °F 44% 30.12 in 10.0 mi NW 3.5 mph - N/A   Clear
9:13 PM 53.6 °F - 33.8 °F 47% 30.13 in 10.0 mi WNW 3.5 mph - N/A   Clear
9:33 PM 53.6 °F - 33.8 °F 47% 30.14 in 10.0 mi WNW 3.5 mph - N/A   Clear
9:53 PM 51.8 °F - 35.6 °F 54% 30.14 in 10.0 mi Calm Calm - N/A   Clear
10:13 PM 50.0 °F - 35.6 °F 58% 30.14 in 10.0 mi Calm Calm - N/A   Clear
10:33 PM 48.2 °F - 35.6 °F 62% 30.15 in 10.0 mi Calm Calm - N/A   Clear
10:53 PM 50.0 °F - 35.6 °F 58% 30.15 in 10.0 mi NNW 4.6 mph - N/A   Clear
11:13 PM 44.6 °F 43.1 °F 35.6 °F 71% 30.15 in 10.0 mi NNW 3.5 mph - N/A   Clear
11:33 PM 44.6 °F - 35.6 °F 71% 30.15 in 10.0 mi Calm Calm - N/A   Clear
11:53 PM 44.6 °F - 37.4 °F 76% 30.15 in 10.0 mi Calm Calm - N/A   Clear